Location: Unspecified
(0.0000°N, 0.0000°E)
Time: 20:34:30
(UTC+00:00)

N. Korean satellite - Pass Details

Date: 04 June 2023
Orbit: 364 x 379 km, 97.3° (Epoch: 04 June)

Event Time Altitude Azimuth Distance (km) Brightness Sun altitude
Rises 05:12:47 0° 12° (NNE) 2,235 10.5 -10.5°
Reaches altitude 10° 05:14:44 10° 13° (NNE) 1,386 9.4 -10.1°
Maximum altitude 05:17:41 83° 102° (ESE) 384 6.1 -9.4°
Drops below altitude 10° 05:20:39 10° 189° (S) 1,388 8.6 -8.7°
Sets 05:22:35 0° 190° (S) 2,240 9.6 -8.2°
